FW3684 Weather Reports


time (UTC)temp
F
wind
direction
speed
knots
gust
knots
rain 1hr
in
rain 24hr
in
rain mn
in
humidity
%
barometer
mb
20260504215014 76 255 4.3 7.8 0.00 0.00 0.00 36 1014.9
20260504214511 76 100 1.7 5.2 0.00 0.00 0.00 38 1014.8
20260504214010 76 259 0.9 11.3 0.00 0.00 0.00 38 1014.8
20260504213510 76 151 3.5 11.3 0.00 0.00 0.00 38 1014.8
20260504213010 76 150 0.9 13.0 0.00 0.00 0.00 37 1014.8
20260504212510 76 273 0.0 10.4 0.00 0.00 0.00 38 1014.8
20260504212010 76 174 1.7 13.9 0.00 0.00 0.00 40 1014.8
20260504211509 76 264 3.5 13.9 0.00 0.00 0.00 38 1014.8
20260504211008 76 233 1.7 12.2 0.00 0.00 0.00 37 1014.7
20260504210509 77 236 1.7 12.2 0.00 0.00 0.00 36 1014.7
20260504210008 77 211 0.9 7.0 0.00 0.00 0.00 37 1014.8
20260504205508 77 116 2.6 7.0 0.00 0.00 0.00 39 1014.9
20260504205008 76 154 1.7 7.0 0.00 0.00 0.00 38 1014.9
20260504204506 77 143 2.6 10.4 0.00 0.00 0.00 38 1014.8
20260504204006 77 295 2.6 6.1 0.00 0.00 0.00 38 1014.8
20260504203505 78 79 2.6 5.2 0.00 0.00 0.00 39 1014.8
20260504203008 77 260 1.7 9.6 0.00 0.00 0.00 39 1014.8
20260504202504 77 266 5.2 11.3 0.00 0.00 0.00 39 1014.9
20260504202004 77 189 7.0 11.3 0.00 0.00 0.00 39 1014.8
20260504201505 78 299 1.7 5.2 0.00 0.00 0.00 38 1015.0
20260504201003 77 60 0.9 12.2 0.00 0.00 0.00 37 1015.0
20260504200601 77 143 0.9 12.2 0.00 0.00 0.00 39 1015.2
20260504195559 77 263 2.6 8.7 0.00 0.00 0.00 37 1015.4
20260504195058 75 150 3.5 10.4 0.00 0.00 0.00 38 1015.4
20260504194600 76 274 5.2 10.4 0.00 0.00 0.00 37 1015.4
20260504194057 75 266 5.2 12.2 0.00 0.00 0.00 38 1015.4
20260504193559 75 215 5.2 12.2 0.00 0.00 0.00 37 1015.6
20260504193101 76 136 3.5 10.4 0.00 0.00 0.00 37 1015.6
20260504192555 76 226 1.7 7.8 0.00 0.00 0.00 34 1015.7
20260504191601 75 262 0.9 9.6 0.00 0.00 0.00 35 1015.8
20260504191055 76 271 3.5 9.6 0.00 0.00 0.00 36 1016.0
20260504190555 76 150 2.6 7.0 0.00 0.00 0.00 34 1016.0
20260504190054 76 132 0.9 7.0 0.00 0.00 0.00 37 1016.1
20260504185552 76 259 1.7 7.0 0.00 0.00 0.00 38 1016.2
20260504185051 75 284 0.9 11.3 0.00 0.00 0.00 36 1016.2
20260504184551 74 236 3.5 11.3 0.00 0.00 0.00 38 1016.4
20260504184051 74 274 4.3 9.6 0.00 0.00 0.00 39 1016.3
20260504183550 74 234 0.9 13.0 0.00 0.00 0.00 37 1016.4
20260504183050 75 252 0.9 7.0 0.00 0.00 0.00 39 1016.5
20260504182549 74 70 2.6 8.7 0.00 0.00 0.00 40 1016.5
20260504181549 74 234 4.3 8.7 0.00 0.00 0.00 38 1016.6
20260504181046 74 188 0.9 10.4 0.00 0.00 0.00 42 1016.6
20260504180547 74 252 5.2 10.4 0.00 0.00 0.00 37 1016.8
20260504180049 74 213 0.9 9.6 0.00 0.00 0.00 40 1016.8
20260504175544 73 198 4.3 10.4 0.00 0.00 0.00 39 1016.9
20260504175043 74 278 3.5 10.4 0.00 0.00 0.00 37 1017.0
20260504174545 74 229 0.9 2.6 0.00 0.00 0.00 38 1017.0
20260504174042 73 31 0.9 9.6 0.00 0.00 0.00 36 1017.1
20260504173541 74 231 4.3 9.6 0.00 0.00 0.00 38 1017.1
20260504173042 74 227 1.7 6.1 0.00 0.00 0.00 37 1017.2
20260504172541 75 300 0.9 7.8 0.00 0.00 0.00 36 1017.1
20260504171543 75 227 2.6 7.8 0.00 0.00 0.00 38 1017.2
20260504171041 75 254 3.5 7.0 0.00 0.00 0.00 39 1017.1
20260504170542 75 14 0.0 3.5 0.00 0.00 0.00 40 1017.1
20260504151020 66 100 2.6 10.4 0.00 0.00 0.00 42 1019.7
20260504150521 67 270 4.3 10.4 0.00 0.00 0.00 43 1019.8
20260504141018 66 25 0.0 2.6 0.00 0.00 0.00 48 1019.5
20260504140515 65 150 0.0 5.2 0.00 0.00 0.00 50 1019.4
20260504130504 56 215 2.6 6.1 0.00 0.00 0.00 68 1019.3
20260504110542 40 271 0.0 2.6 0.00 0.00 0.00 90 1019.1
20260504100535 38 70 0.0 3.5 0.00 0.00 0.00 91 1019.6
20260504081530 38 116 0.0 2.6 0.00 0.00 0.00 91 1019.4
20260504081031 38 82 0.0 2.6 0.00 0.00 0.00 90 1019.5
20260504080528 38 83 1.7 2.6 0.00 0.00 0.00 89 1019.3
20260504050513 40 34 0.9 2.6 0.00 0.00 0.00 85 1019.9
20260504050010 41 72 0.0 3.5 0.00 0.00 0.00 84 1020.0
20260504045510 41 68 1.7 3.5 0.00 0.00 0.00 84 1019.9
20260504045011 40 28 0.9 2.6 0.00 0.00 0.00 85 1020.0
20260504044509 40 68 1.7 2.6 0.00 0.00 0.00 85 1019.8
20260504044010 41 79 0.0 2.6 0.00 0.00 0.00 83 1019.9
20260504043506 41 42 0.9 2.6 0.00 0.00 0.00 84 1019.6
20260504043005 41 26 0.9 2.6 0.00 0.00 0.00 84 1019.7
20260504042504 41 84 0.0 1.7 0.00 0.00 0.00 84 1019.7
20260504041505 42 4 0.0 2.6 0.00 0.00 0.00 82 1019.6
20260504041003 42 5 0.9 2.6 0.00 0.00 0.00 81 1019.7
20260504040503 42 55 0.9 2.6 0.00 0.00 0.00 81 1019.9
20260504040008 42 46 0.9 2.6 0.00 0.00 0.00 82 1019.7
20260504035504 42 27 0.9 2.6 0.00 0.00 0.00 81 1019.7
20260504035005 42 34 0.9 2.6 0.00 0.00 0.00 81 1019.5
20260504034501 42 51 0.0 2.6 0.00 0.00 0.00 81 1019.4
20260504034001 43 70 0.9 2.6 0.00 0.00 0.00 80 1019.4
20260504033502 43 69 0.9 3.5 0.00 0.00 0.00 79 1019.4
20260504033002 43 31 2.6 3.5 0.00 0.00 0.00 79 1019.5
20260504032602 43 49 0.9 1.7 0.00 0.00 0.00 78 1019.5
20260504031501 44 93 0.0 2.6 0.00 0.00 0.00 79 1019.5
20260504031100 44 92 0.9 2.6 0.00 0.00 0.00 77 1019.5
20260504030502 44 60 1.7 3.5 0.00 0.00 0.00 77 1019.6
20260504030002 44 21 0.9 3.5 0.00 0.00 0.00 77 1019.8
20260504025600 44 45 1.7 2.6 0.00 0.00 0.00 77 1019.6
20260504025101 44 83 0.0 4.3 0.00 0.00 0.00 77 1019.6
20260504024601 45 103 0.0 4.3 0.00 0.00 0.00 76 1019.6
20260504024200 45 351 0.0 2.6 0.00 0.00 0.00 77 1019.7
20260504023559 45 123 0.0 2.6 0.00 0.00 0.00 75 1019.7
20260504023103 45 34 0.0 2.6 0.00 0.00 0.00 74 1019.8
20260504022600 46 132 0.0 2.6 0.00 0.00 0.00 75 1019.6
20260504021600 46 35 0.9 5.2 0.00 0.00 0.00 72 1019.6
20260504021059 46 80 0.9 1.7 0.00 0.00 0.00 73 1019.5
20260504020602 46 133 0.0 1.7 0.00 0.00 0.00 73 1019.6
20260504015600 47 12 0.0 1.7 0.00 0.00 0.00 71 1019.4
20260504015059 47 12 0.0 1.7 0.00 0.00 0.00 69 1019.2
20260504014607 47 84 0.0 0.9 0.00 0.00 0.00 70 1019.1
20260504014059 48 67 0.0 1.7 0.00 0.00 0.00 69 1019.1
20260504013558 48 84 0.9 1.7 0.00 0.00 0.00 69 1018.9
20260504013108 48 65 0.0 2.6 0.00 0.00 0.00 69 1018.8
20260504012600 49 28 0.9 2.6 0.00 0.00 0.00 68 1018.9
20260504011559 49 77 0.0 1.7 0.00 0.00 0.00 67 1018.7
20260504011058 50 62 0.0 2.6 0.00 0.00 0.00 65 1018.7
20260504010559 50 35 1.7 2.6 0.00 0.00 0.00 64 1018.6
20260504010058 51 89 0.9 1.7 0.00 0.00 0.00 64 1018.5
20260504005559 51 27 0.0 1.7 0.00 0.00 0.00 61 1018.5
20260504005102 52 27 0.0 1.7 0.00 0.00 0.00 60 1018.4
20260504004558 52 70 0.0 1.7 0.00 0.00 0.00 59 1018.3
20260504004056 53 353 0.0 0.9 0.00 0.00 0.00 57 1018.3
20260504003557 54 349 0.0 0.9 0.00 0.00 0.00 55 1018.4
20260504003103 54 346 0.0 0.9 0.00 0.00 0.00 56 1018.2
20260504002557 55 346 0.0 0.9 0.00 0.00 0.00 54 1018.1
20260504001607 56 346 0.0 2.6 0.00 0.00 0.00 53 1017.8
20260504001056 57 91 0.0 1.7 0.00 0.00 0.00 52 1017.7
20260504000556 58 91 0.0 1.7 0.00 0.00 0.00 48 1017.7
20260504000122 59 278 0.0 1.7 0.00 0.00 0.00 40 1017.6
20260503235555 60 200 0.0 1.7 0.00 0.00 0.00 45 1017.6
20260503235055 60 234 0.0 0.9 0.00 0.00 0.00 42 1017.6
20260503234556 61 326 0.0 0.9 0.00 0.00 0.00 44 1017.5
20260503234055 62 333 0.0 0.9 0.00 0.00 0.00 41 1017.6
20260503233557 63 333 0.0 0.9 0.00 0.00 0.00 38 1017.4
20260503233055 64 276 0.0 3.5 0.00 0.00 0.00 33 1017.4
20260503232554 65 335 1.7 4.3 0.00 0.00 0.00 31 1017.4
20260503231555 66 273 0.9 5.2 0.00 0.00 0.00 32 1017.4
20260503231055 67 202 1.7 4.3 0.00 0.00 0.00 29 1017.3
20260503230556 68 229 0.0 2.6 0.00 0.00 0.00 32 1017.4
20260503225555 68 263 1.7 4.3 0.00 0.00 0.00 28 1017.3
20260503225054 68 196 0.0 1.7 0.00 0.00 0.00 31 1017.4
20260503224555 68 309 0.0 5.2 0.00 0.00 0.00 27 1017.4
20260503224054 67 224 1.7 5.2 0.00 0.00 0.00 28 1017.5
20260503223555 67 226 2.6 5.2 0.00 0.00 0.00 27 1017.4
20260503223054 68 297 1.7 5.2 0.00 0.00 0.00 24 1017.4
20260503222555 68 267 1.7 4.3 0.00 0.00 0.00 24 1017.5
20260503221557 68 255 2.6 7.0 0.00 0.00 0.00 24 1017.4
20260503221053 67 341 1.7 11.3 0.00 0.00 0.00 22 1017.5
20260503220553 67 260 3.5 11.3 0.00 0.00 0.00 21 1017.5
20260503220052 67 22 2.6 12.2 0.00 0.00 0.00 21 1017.6
20260503215551 67 255 4.3 12.2 0.00 0.00 0.00 21 1017.6
20260503215050 68 214 4.3 9.6 0.00 0.00 0.00 21 1017.6